[Iaude] MPEC G85: 2024 GB1 [a=1.28,e=0.17,i=7.4,H=26.6]

mpec at cfa.harvard.edu mpec at cfa.harvard.edu
Sat Apr 6 18:11:51 EDT 2024


M.P.E.C. 2024-G85                                 Issued 2024 April 6, 22:10 UT

     The Minor Planet Electronic Circulars contain information on unusual
         minor planets, routine data on comets and natural satellites,
         and occasional editorial announcements.  They are published
    on behalf of Division F of the International Astronomical Union by the
          Minor Planet Center, Smithsonian Astrophysical Observatory,
                          Cambridge, MA 02138, U.S.A.
			  
             Prepared using the Tamkin Foundation Computer Network

                              MPC at CFA.HARVARD.EDU
            URL https://www.minorplanetcenter.net/    ISSN 1523-6714

                                    2024 GB1                                    


Observations:
     K24G01B* C2024 04 03.36563713 22 02.669+26 16 48.65         22.13GVEG085V00
     K24G01B  C2024 04 03.37065113 22 03.882+26 17 12.30         22.01GVEG085V00
     K24G01B  C2024 04 03.37563013 22 05.149+26 17 35.09         22.73GVEG085V00
     K24G01B  C2024 04 03.38061413 22 06.424+26 17 57.70         22.76GVEG085V00
     K24G01B mC2024 04 04.31789513 26 45.280+27 30 15.52         22.97GVEG085V00
     K24G01B mC2024 04 04.31886813 26 45.510+27 30 19.26         22.59GVEG085V00
     K24G01B mC2024 04 04.31983613 26 45.762+27 30 23.65         22.42GVEG085V00
     K24G01B  C2024 04 05.26786713 31 26.950+28 40 36.85         22.4 GVEG085H01
     K24G01B  C2024 04 05.27320013 31 28.301+28 41 00.52         21.4 GVEG085H01
     K24G01B  C2024 04 05.28923013 31 32.344+28 42 11.58         21.5 GVEG085H01
     K24G01B KC2024 04 05.29556613 31 33.928+28 42 39.53         22.4 GVEG085H01
     K24G01B 7C2024 04 06.05922113 35 16.593+29 37 01.28         21.8 GVEG085Z84
     K24G01B 7C2024 04 06.06547913 35 18.159+29 37 27.24         21.6 GVEG085Z84
     K24G01B KC2024 04 06.22784513 36 09.04 +29 48 42.6          23.1 GVEG085H21
     K24G01B KC2024 04 06.23795913 36 11.62 +29 49 25.2          22.8 GVEG085H21
     K24G01B KC2024 04 06.24768713 36 14.07 +29 50 06.3          22.5 GVEG085H21

Observer details:
H01 Magdalena Ridge Observatory, Socorro.  Observers W. H. Ryan, E. V. Ryan.
    Measurer W. H. Ryan.  2.4-m f/8.9 Ritchey-Chretien + CCD.
H21 Astronomical Research Observatory, Westfield.  Observer R. Holmes.
    Measurers T. Linder, R. Holmes, L. Horn.  1.3-m f/4.0 astrograph + CCD.
V00 Kitt Peak-Bok.  Observers V. F. Carvajal, K. W. Wierzchos.  Measurers M.
    J. Brucker, C. E. Woodward, T. Beuden, V. F. Carvajal, D. Fay, J. B.
    Fazekas, D. C. Fuls, A. R. Gibbs, H. Groeller, J. K. Hogan, R. A.
    Kowalski, S. M. Larson, C. Lejoly, G. J. Leonard, R. A. Mastaler, R. S.
    McMillan, D. Rankin, R. L. Seaman, F. C. Shelly, K. W. Wierzchos.  2.25-m
    reflector + 4x4K mosaic CCD.
Z84 Calar Alto-Schmidt.  Observers F. Ocana, R. Kresken, M. Micheli, L.
    Conversi.  Measurers F. Ocana, M. Micheli.  0.8-m f/3 Schmidt + CCD.

Orbital elements:
2024 GB1                                                 Earth MOID = 0.0764 AU
Epoch 2024 Mar. 31.0 TT = JDT 2460400.5                 Veres                   
M 351.16554              (2000.0)            P               Q                  
n   0.68320823     Peri.   26.75364     -0.92179318     +0.38757825             
a   1.2767347      Node   176.01798     -0.37479518     -0.88499839             
e   0.1663165      Incl.    7.42065     -0.09912574     -0.25799409             
P   1.44           H   26.64          G   0.15           U   8                  
Residuals in seconds of arc
240403 V00  0.3+  0.1-    240404 V00  0.1+  0.1-    240406 Z84  0.0   0.4-
240403 V00  0.3-  0.2+    240405 H01  0.0   0.1+    240406 H21  0.0   0.2+
240403 V00  0.0   0.1-    240405 H01  0.0   0.0     240406 H21  0.1+  0.0
240403 V00 (0.3+  0.6-)   240405 H01  0.0   0.1+    240406 H21  0.1-  0.1+
240404 V00 (0.1+  0.7+)   240405 H01  0.1-  0.1+
240404 V00  0.0   0.0     240406 Z84  0.2+  0.3-

Ephemeris:
2024 GB1                 a,e,i = 1.28, 0.17, 7                   q = 1.0644
Date    TT    R. A. (2000) Decl.     Delta      r    Elong.  Phase     V
2024 03 07    11 35 58.9 -09 51 16   0.1043  1.0928   163.6    14.9    22.8
...
2024 03 22    12 25 19.7 +08 01 15   0.07941 1.0747   170.1     9.2    21.9
...
2024 03 30    13 00 55.5 +20 10 21   0.07648 1.0686   155.2    23.0    22.3
...
2024 04 05    13 30 05.4 +28 21 12   0.07889 1.0658   144.7    32.9    22.6
2024 04 06    13 35 00.0 +29 33 04   0.07963 1.0654   143.1    34.4    22.7
2024 04 07    13 39 54.0 +30 41 37   0.08044 1.0652   141.5    35.8    22.8
...
2024 04 13    14 08 35.0 +36 19 41   0.08682 1.0644   133.6    43.1    23.1
...
2024 04 21    14 42 56.5 +40 48 01   0.09805 1.0658   126.2    49.5    23.6
...
2024 05 06    15 29 28.5 +42 41 45   0.1226  1.0757   120.2    54.2    24.2

M. P. C. Staff               (C) Copyright 2024 MPC           M.P.E.C. 2024-G85





More information about the Iaude mailing list